Location: Newark
(41.7772°N, 74.7403°W)
Time: 06:42:06
(UTC+00:00)

A-11 Canister half - All Passes

Search period start: 26 May 2020 00:00
Search period end: 05 June 2020 00:00
Orbit: 1525 x 1683 km, 47.3° (Epoch: 23 May)

Date Brightness Start Highest point End Pass type
(mag) Time Alt. Az. Time Alt. Az. Time Alt. Az.
26 May - 12:13:37 10° SSW 12:22:12 43° SE 12:30:55 10° ENE daylight
26 May - 14:17:20 10° WSW 14:26:43 83° NNW 14:36:23 10° ENE daylight
26 May - 16:23:09 10° W 16:32:32 63° N 16:42:16 10° E daylight
26 May - 18:28:38 10° WNW 18:38:18 88° NNE 18:48:19 10° ESE daylight
26 May - 20:34:03 10° WNW 20:42:48 39° SW 20:51:48 10° SSE daylight
27 May - 11:52:09 10° SSW 12:00:37 41° SE 12:09:12 10° ENE daylight
27 May - 13:55:42 10° WSW 14:05:04 85° NNW 14:14:43 10° ENE daylight
27 May - 16:01:28 10° W 16:10:51 63° N 16:20:32 10° E daylight
27 May - 18:06:59 10° WNW 18:16:38 86° NNE 18:26:37 10° ESE daylight
27 May - 20:12:21 10° WNW 20:21:12 41° SW 20:30:17 10° SSE daylight
28 May - 11:30:41 10° SSW 11:39:02 39° SE 11:47:30 10° ENE daylight
28 May - 13:34:03 10° WSW 13:43:25 87° NNW 13:53:02 10° ENE daylight
28 May - 15:39:48 10° W 15:49:09 63° N 15:58:48 10° E daylight
28 May - 17:45:21 10° WNW 17:54:59 84° NNE 18:04:55 10° ESE daylight
28 May - 19:50:41 10° WNW 19:59:36 43° SW 20:08:45 10° SSE daylight
29 May - 11:09:14 10° SSW 11:17:28 37° SE 11:25:48 10° ENE daylight
29 May - 13:12:25 10° WSW 13:21:46 89° NNW 13:31:21 10° ENE daylight
29 May - 15:18:08 10° W 15:27:27 63° N 15:37:05 10° E daylight
29 May - 17:23:43 10° WNW 17:33:18 82° NNE 17:43:13 10° ESE daylight
29 May - 19:29:00 10° WNW 19:37:59 45° SW 19:47:14 10° SSE daylight
29 May - 21:39:52 10° WSW 21:41:13 10° WSW 21:42:35 10° SW daylight
30 May - 10:47:48 10° SSW 10:55:54 35° SE 11:04:04 10° ENE daylight
30 May - 12:50:48 10° WSW 13:00:08 89° SSE 13:09:41 10° ENE daylight
30 May - 14:56:27 10° W 15:05:46 63° N 15:15:22 10° ENE daylight
30 May - 17:02:04 10° WNW 17:11:38 81° NNE 17:21:31 10° ESE daylight
30 May - 19:07:19 10° WNW 19:16:22 47° SW 19:25:41 10° SSE daylight
30 May - 21:16:55 10° WSW 21:19:40 11° WSW 21:22:26 10° SW daylight
31 May - 10:26:22 10° SSW 10:34:19 33° SE 10:42:20 10° ENE daylight
31 May - 12:29:10 10° WSW 12:38:29 87° SSE 12:48:01 10° ENE daylight
31 May - 14:34:47 10° W 14:44:05 63° N 14:53:39 10° ENE daylight
31 May - 16:40:26 10° WNW 16:49:58 79° NNE 16:59:49 10° ESE daylight
31 May - 18:45:40 10° WNW 18:54:45 49° SW 19:04:08 10° SSE daylight
31 May - 20:54:31 10° W 20:58:07 13° WSW 21:01:45 10° SW daylight
01 Jun - 10:04:57 10° S 10:12:46 32° SE 10:20:36 10° ENE daylight
01 Jun - 12:07:33 10° WSW 12:16:52 84° SSE 12:26:21 10° ENE daylight
01 Jun - 14:13:07 10° W 14:22:23 64° N 14:31:57 10° ENE daylight
01 Jun - 16:18:48 10° WNW 16:28:18 77° NNE 16:38:07 10° ESE daylight
01 Jun - 18:24:00 10° WNW 18:33:09 52° SW 18:42:35 10° SSE daylight
01 Jun - 20:32:19 10° W 20:36:33 14° WSW 20:40:52 10° SSW daylight
02 Jun - 09:43:34 10° S 09:51:12 30° SE 09:58:53 10° ENE daylight
02 Jun - 11:45:57 10° SW 11:55:14 82° SSE 12:04:42 10° ENE daylight
02 Jun - 13:51:26 10° W 14:00:43 64° N 14:10:14 10° ENE daylight
02 Jun - 15:57:09 10° WNW 16:06:37 76° NNE 16:16:23 10° ESE daylight
02 Jun - 18:02:21 10° WNW 18:11:32 54° SW 18:21:00 10° SSE daylight
02 Jun - 20:10:13 10° W 20:15:00 15° WSW 20:19:51 10° SSW daylight
03 Jun - 09:22:11 10° S 09:29:39 28° SE 09:37:07 10° ENE daylight
03 Jun - 11:24:20 10° SW 11:33:37 79° SSE 11:43:02 10° ENE daylight
03 Jun - 13:29:46 10° W 13:39:02 65° N 13:48:32 10° ENE daylight
03 Jun - 15:35:30 10° WNW 15:44:57 74° NNE 15:54:41 10° ESE daylight
03 Jun - 17:40:42 10° WNW 17:49:55 56° SW 17:59:25 10° SE daylight
03 Jun - 19:48:13 10° W 19:53:27 16° SW 19:58:46 10° SSW daylight
04 Jun - 09:00:49 10° S 09:08:06 26° SE 09:15:22 10° ENE daylight
04 Jun - 11:02:43 10° SW 11:11:59 77° SSE 11:21:22 10° ENE daylight
04 Jun - 13:08:06 10° W 13:17:22 65° N 13:26:50 10° ENE daylight
04 Jun - 15:13:51 10° WNW 15:23:17 73° NNE 15:32:59 10° ESE daylight
04 Jun - 17:19:03 10° WNW 17:28:18 59° SW 17:37:50 10° SE daylight
04 Jun - 19:26:15 10° W 19:31:53 17° SW 19:37:37 10° SSW daylight
